Погода в Михайловке

Погода в Михайловке : погода сейчас, прогноз погоды и архив. Всё, что Вы хотите узнать о погоде в Михайловке!

Поиск расширенной информации на нашем сайте:

Другие новости

Новости СМИ2

Главная страница сайта

Новости сайта

02.10.2013

Напоминаем, что на нашем новом сайте вы можете получить высокодетализированные прогнозы погоды по пунктам России, СНГ и мира (включающие важные для авиации метеовеличины, такие как направление и скорость ветра, видимость, явления погоды, количество и форма облачности, нижняя и верхняя граница облачности), а также ознакомиться с разнообразными материалами по авиационной метеорологии и подборкой полезных ссылок на эту тему.

Сайт Метеоцентр.Азия посвящён разработке технологий оптимизации авиаметеорологического обслуживания, включая проектирование и перспективное создание нескольких автоматизированных авиаметеорологических систем:
- система выпуска высокодетальных прогностических карт явлений погоды для нижнего воздушного пространства по России и ближнему зарубежью;
- система верификации прогнозов TAF (выпускаемых синоптиками официальных АМСГ РФ и ближнего зарубежья) и AUTOTAF (выпускаемых сайтом Метеоцентр.Азия) - выявление ошибок, онлайн-сопоставление с фактической погодой METAR, автоматическое внесение коррективов в прогнозы при резком отклонении фактической погоды от прогноза, подсчёт оправдываемости прогнозов по элементам и в целом;
- система обработки, анализа и отображения авиаметеорологической информации для применения провайдерами метеорологической информации.

Рекомендуем: Детальное описание вызов терапевта на дом тут.

Погода в Михайловке - сегодня

Время (UTC), дата Ветер
(°,м/с) 
Видим.   Явления Облачность Т
(°С)
Тd
(°С)
f(%) Тe
(°С)
Pmin
(гПа)
dP
(гПа)
Po
(мм)
O2
(г/м3)
Тmin Tmax R s Состояние
почвы
21 17.01.17 тихо ()   н/о    ясно 
-25.8 -28.1 81 -26  1039.2  -0.9  767  343           
00 18.01.17 тихо ()   н/о    ясно 
-27.1 -29.4 81 -27  1039.2  767  345           
03 18.01.17 тихо ()   2000 м  дымка{туман}  3/0 верхняя 
[Ci fib]
-27.9 -29.6 85 -28  1039.3  767  346        16  равномерный
сухой снег
100% 
06 18.01.17 тихо ()   4000 м  дымка{туман}  5/0 верхняя 
[Ci fib]
-23.5 -26.1 79 -24  1038.9  -0.1  767  340  -28         
09 18.01.17 тихо ()   10 км    5/0 верхняя 
[Ci fib]
-21.7 -25.1 74 -22  1038.3  -0.5  767  337           
12 18.01.17 130 (ЮВ) н/о    3/0 верхняя 
[Cc]
-25.5 -28.1 79 -26  1039  0.5  767  343           
15 18.01.17 170 (Ю) н/о    3/0 верхняя 
[Ci fib]
-24.5 -27.1 79 -28  1038.3  -0.7  767  341    -20.3       
18 18.01.17 тихо ()   н/о    ясно 
-25.3 -27.9 79 -25  1038  -0.3  766  342    -20.3       
21 18.01.17 тихо ()   н/о    ясно 
-26 -27.9 84 -26  1037  -1  766  343           
00 19.01.17 тихо ()   н/о    ясно 
-26.7 -29 81 -27  1036.5  -0.6  765  344           
03 19.01.17 тихо ()   0500 м  переохл. туман  ясно 
-25.6 -27.6 83 -26  1036.3  -0.1  765  342        16  равномерный
сухой снег
100% 
06 19.01.17 тихо ()   4000 м  дымка{туман}  ясно 
-24.4 -27 79 -24  1035.9  -0.3  765  340  -27.1         
09 19.01.17 110 (В) 10 км    ясно 
-23 -25.8 78 -23  1034.8  -1  764  338           
12 19.01.17 110 (В) н/о    4/0 верхняя 
[Ci fib]
-23.7 -26.2 80 -28  1034.1  -0.7  764  339           
15 19.01.17 120 (ЮВ) н/о  слаб. снег  10/10 300 м 
[Ns]
-19.9 -21.8 85 -25  1032.1  -1.8  762  333    -19.3  0.0     
18 19.01.17 120 (ЮВ) н/о  {снег}  10/10 300 м 
[Frnb]
-20.8 -22.9 83 -24  1030.5  -1.6  761  334    -19.3  0.0     
21 19.01.17 140 (ЮВ) н/о    10/10 600 м 
[Sc]
-21 -23 84 -25  1028.4  -2.1  759  333           
00 20.01.17 150 (ЮВ) н/о    10/0 верхняя 
[Ci sp]
-20.3 -22.4 83 -25  1026.3  -2  758  332           
03 20.01.17 140 (ЮВ) 10 км    10/10 600 м 
[Sc]
-18.3 -20.3 84 -21  1024.9  -1.3  757  329      0.0  16  равномерный
сухой снег
100% 
06 20.01.17 160 (Ю) 10 км  слаб. снег  10/0 средняя, верхняя 
[As op|Ci fib]
-15.2 -17.1 85 -19  1023.8  -0.9  756  324  -21.5    0.0     
09 20.01.17 180 (Ю) 10 км  {снег}  10/0 верхняя 
[Ci fib]
-12.4 -14.3 86 -17  1021.9  -1.7  755  320           
12 20.01.17 200 (Ю) н/о  {снег}  10/0 верхняя 
[Ci fib]
-14.5 -16.5 85 -20  1021.2  -0.8  754  322           
15 20.01.17 190 (Ю) н/о    ясно 
-16.8 -18.7 85 -23  1020.8  -0.5  754  325    -12.2  0.0     
18 20.01.17 180 (Ю) н/о    ясно 
-17.8 -19.8 84 -24  1019.6  -1.3  753  326    -12.2  0.0     
21 20.01.17 200 (Ю) н/о    10/10 600 м 
[Sc]
-13.1 -15.8 80 -18  1017.1  -2.1  752  319           
Время (UTC), дата Ветер
(°,м/с) 
Видим.   Явления Облачность Т
(°С)
Тd
(°С)
f(%) Тe
(°С)
Pmin
(гПа)
dP
(гПа)
Po
(мм)
O2
(г/м3)
Тmin Tmax R s Состояние
почвы

Для получения пояснительной информации подведите курсор к названию столбца.

ПОГОДА в Михайловке - архив

Всё, что Вы хотите узнать о погоде в Михайловке - удобно и подробно!

Выберите нужную дату (начиная с 1 января 2015* года) и нажмите кнопку "Найти".
Будут отображены архивные сводки погоды по пункту Михайловка, начиная с указанной даты.


Отображать данные в формате CSV (для использования в таблицах Excel)


Внимание! Наш архив погоды предназначен исключительно для личного некоммерческого использования в познавательных целях. Если Вам необходимы официальные справки о состоянии погоды (для производственных, юридических, коммерческих и т.п. целей), обращайтесь в органы Росгидромета.

*Примечание: данная дата относится к архиву по метеостанциям СССР (Россия, СНГ, Балтия).
Архив по метеостанциям Зарубежной Европы и Азии (кроме Китая) хранится 10 дней, по другим регионам земного шара (Китай, Африка, Америка, Австралия, Океания) - 1 день.

Михайловка - район местоположения метеостанции


Название, широта, долгота, высота метеостанции:
Михайловка 53.8°ш. 76.5°д. 114 м над ур. моря [Казахстан]

Дополнительная информация

В oтличие oт бoльшинства пoгoдных сайтoв мы публикуем пoдрoбную метеoинфoрмацию в детальнoм прoфессиoнальнoм фoрмате.

Характеристики температуры и влажнoсти вoздуха измеряются на высoте 2 м в тени вдали oт зданий и деревьев.
Скoрoсть ветра измеряется на высoте 10 м (на урoвне рoста челoвека скoрoсть ветра ниже в 1.5-2 раза). Если метеoстанция нахoдится в гoрoде или в лесу, тo скoрoсть ветра занижена на 2-4 м/с пo сравнению с oткрытым местoм. Скoрoсть ветра над акватoриями крупных рек и oзёр, а также на вершинах хoлмoв на 2-5 м/с выше, чем в oбычных услoвиях.
Атмoсфернoе давление в разных тoчках местнoсти мoжет значительнo oтличаться oт давления на метеoстанции, в зависимoсти oт услoвий рельефа (при пoдъёме на 10 м давление пoнижается примернo на 1 мм рт.ст.).